Date String (YYYY-MM-DD hh:mm:ss) UTC,Instrument flags,absolute air pressure of the measurement (hPa),sample flow rate (lpm),inlet stack bypass flow (lpm),air temperature of the measurement (°C),ambient temperature measured by the external sensor (°C),aerosol sample conditioner tube jacket temperature (°C),OPC LED temperature (°C),internal box temperature (°C),relative humidity of the measurement (%),span deviation,mass concentration of particles derived from Lorenz-Mie calculation of OPC scattering (μg/m³),mass concentration of particles derived from Lorenz-Mie calculation of OPC scattering (μg/m³),mass concentration of particles derived from Lorenz-Mie calculation of OPC scattering (μg/m³)
DateTimeUTC,F1_M11,P_M11,Q1_M11,Q2_M11,T1_M11,T2_M11,T3_M11,T4_M11,T5_M11,U1_M11,ZSPAN_M11,X0_M11,X2_M11,X1_M11
2023-10-03 13:00:00,SystemResetWarning,0826.2,4.99,000.00,029.2,027.8,000.0,037.7,030.8,25.1,0000.0,0006.99,0003.88,0003.36
2023-10-03 13:01:00,SystemResetWarning,0826.2,4.99,000.00,029.2,027.8,000.0,037.7,030.8,25.2,0000.0,0007.04,0003.91,0003.38
2023-10-03 13:02:00,SystemResetWarning,0826.2,5.00,000.00,029.2,027.8,000.0,037.7,030.8,25.3,0000.0,0007.05,0003.92,0003.38
2023-10-03 13:03:00,SystemResetWarning,0826.2,5.00,000.00,029.2,027.8,000.0,037.7,030.8,25.3,0000.0,0006.90,0003.91,0003.38
2023-10-03 13:04:00,SystemResetWarning,0826.2,5.00,000.00,029.2,027.8,000.0,037.7,030.8,25.2,0000.0,0007.66,0003.89,0003.38
2023-10-03 13:05:00,SystemResetWarning,0826.2,5.00,000.00,029.2,027.8,000.0,037.7,030.8,25.0,0000.0,0007.72,0003.90,0003.39
2023-10-03 13:06:00,SystemResetWarning,0826.2,5.00,000.00,029.2,027.7,000.0,037.7,030.7,25.1,0000.0,0007.80,0003.94,0003.41
2023-10-03 13:07:00,SystemResetWarning,0826.2,5.01,000.00,029.1,027.7,000.0,037.7,030.8,25.1,0000.0,0007.81,0003.96,0003.42
2023-10-03 13:08:00,SystemResetWarning,0826.2,5.01,000.00,029.1,027.7,000.0,037.7,030.8,25.2,0000.0,0007.69,0003.93,0003.41
2023-10-03 13:09:00,SystemResetWarning,0826.2,5.00,000.00,029.1,027.7,000.0,037.7,030.8,25.3,0000.0,0007.66,0003.93,0003.42
2023-10-03 13:10:00,SystemResetWarning,0826.2,5.00,000.00,029.1,027.7,000.0,037.6,030.7,25.6,0000.0,0007.49,0003.90,0003.43
2023-10-03 13:11:00,SystemResetWarning,0826.2,5.00,000.00,029.1,027.7,000.0,037.6,030.7,25.6,0000.0,0007.36,0003.89,0003.44
2023-10-03 13:12:00,SystemResetWarning,0826.3,4.99,000.00,029.1,027.7,000.0,037.6,030.7,25.7,0000.0,0007.39,0003.89,0003.43
2023-10-03 13:13:00,SystemResetWarning,0826.3,4.99,000.00,029.1,027.6,000.0,037.6,030.7,25.8,0000.0,0007.37,0003.88,0003.44
2023-10-03 13:14:00,SystemResetWarning,0826.3,5.00,000.00,029.1,027.6,000.0,037.6,030.7,25.8,0000.0,0007.38,0003.90,0003.44
2023-10-03 13:15:00,SystemResetWarning,0826.2,5.01,000.00,029.1,027.6,000.0,037.6,030.7,25.9,0000.0,0006.23,0003.94,0003.45
2023-10-03 13:16:00,SystemResetWarning,0826.3,5.01,000.00,029.1,027.7,000.0,037.6,030.7,26.0,0000.0,0006.26,0003.95,0003.45
2023-10-03 13:17:00,SystemResetWarning,0826.3,5.00,000.00,029.1,027.7,000.0,037.6,030.7,25.9,0000.0,0006.32,0003.95,0003.46
2023-10-03 13:18:00,SystemResetWarning,0826.4,4.98,000.00,029.1,027.7,000.0,037.6,030.8,25.9,0000.0,0006.37,0003.95,0003.45
2023-10-03 13:19:00,SystemResetWarning,0826.4,5.00,000.00,029.1,027.8,000.0,037.6,030.7,25.6,0000.0,0006.54,0003.99,0003.47
2023-10-03 13:20:00,SystemResetWarning,0826.4,5.01,000.00,029.1,027.8,000.0,037.6,030.8,25.1,0000.0,0006.55,0003.98,0003.46
2023-10-03 13:21:00,SystemResetWarning,0826.4,5.00,000.00,029.1,027.8,000.0,037.6,030.8,25.1,-001.1,0006.88,0004.03,0003.45
2023-10-03 13:22:00,SystemResetWarning,0826.4,5.00,000.00,029.1,027.8,000.0,037.6,030.8,25.1,-001.1,0006.91,0004.03,0003.46
2023-10-03 13:23:00,SystemResetWarning,0826.5,5.00,000.00,029.2,027.9,000.0,037.6,030.8,24.9,-001.2,0007.09,0004.02,0003.46
2023-10-03 13:24:00,SystemResetWarning,0826.5,5.00,000.00,029.2,027.9,000.0,037.7,030.9,24.9,0000.0,0007.07,0004.00,0003.45
2023-10-03 13:25:00,SystemResetWarning,0826.6,4.99,000.00,029.2,027.9,000.0,037.7,030.9,24.8,0000.0,0007.01,0003.97,0003.44
2023-10-03 13:26:00,SystemResetWarning,0826.6,5.00,000.00,029.2,027.9,000.0,037.7,030.9,24.3,0000.0,0007.12,0003.97,0003.44
2023-10-03 13:27:00,SystemResetWarning,0826.5,5.00,000.00,029.2,027.9,000.0,037.7,030.9,24.6,0000.0,0007.01,0003.94,0003.42
2023-10-03 13:28:00,SystemResetWarning,0826.4,5.00,000.00,029.2,027.9,000.0,037.7,030.9,24.8,0000.0,0006.82,0003.90,0003.41
2023-10-03 13:29:00,SystemResetWarning,0826.4,5.00,000.00,029.2,027.9,000.0,037.7,030.9,25.1,0000.0,0006.72,0003.88,0003.40
2023-10-03 13:30:00,SystemResetWarning,0826.4,5.00,000.00,029.2,027.9,000.0,037.7,030.9,25.2,0000.0,0006.68,0003.86,0003.38
2023-10-03 13:31:00,SystemResetWarning,0826.4,5.00,000.00,029.2,028.0,000.0,037.7,030.9,25.2,0000.0,0006.77,0003.87,0003.37
2023-10-03 13:32:00,SystemResetWarning,0826.4,5.00,000.00,029.3,028.0,000.0,037.7,031.0,25.3,0000.0,0006.73,0003.87,0003.36
2023-10-03 13:33:00,SystemResetWarning,0826.4,5.00,000.00,029.3,028.0,000.0,037.7,031.0,25.1,0000.0,0006.60,0003.85,0003.34
2023-10-03 13:34:00,SystemResetWarning,0826.4,5.01,000.00,029.3,028.0,000.0,037.7,031.0,24.8,0000.0,0006.51,0003.84,0003.31
2023-10-03 13:35:00,SystemResetWarning,0826.5,5.00,000.00,029.3,028.0,000.0,037.7,031.0,25.0,0000.0,0006.52,0003.83,0003.29
2023-10-03 13:36:00,SystemResetWarning,0826.4,4.99,000.00,029.3,028.0,000.0,037.8,031.0,25.4,0000.0,0006.63,0003.82,0003.28
2023-10-03 13:37:00,SystemResetWarning,0826.4,4.99,000.00,029.3,028.0,000.0,037.8,031.0,25.7,0000.0,0007.16,0003.79,0003.28
2023-10-03 13:38:00,SystemResetWarning,0826.4,5.00,000.00,029.3,028.0,000.0,037.8,031.0,25.9,0000.0,0006.94,0003.74,0003.26
2023-10-03 13:39:00,SystemResetWarning,0826.4,5.01,000.00,029.3,028.0,000.0,037.8,031.0,26.1,0000.0,0007.08,0003.75,0003.25
2023-10-03 13:40:00,SystemResetWarning,0826.4,5.00,000.00,029.3,028.0,000.0,037.8,031.0,26.3,0000.0,0007.14,0003.75,0003.23
2023-10-03 13:41:00,SystemResetWarning,0826.4,5.00,000.00,029.3,028.0,000.0,037.8,031.0,26.6,0000.0,0007.14,0003.74,0003.22
2023-10-03 13:42:00,SystemResetWarning,0826.4,5.00,000.00,029.3,028.0,000.0,037.8,031.0,26.7,0000.0,0007.05,0003.71,0003.20
2023-10-03 13:43:00,SystemResetWarning,0826.4,5.00,000.00,029.3,028.0,000.0,037.8,031.0,26.7,0000.0,0006.94,0003.67,0003.19
2023-10-03 13:44:00,SystemResetWarning,0826.4,4.99,000.00,029.3,028.0,000.0,037.8,031.0,27.2,0000.0,0006.91,0003.66,0003.19
2023-10-03 13:45:00,SystemResetWarning,0826.4,5.00,000.00,029.3,028.0,000.0,037.8,031.0,27.4,0000.0,0006.99,0003.66,0003.18
2023-10-03 13:46:00,SystemResetWarning,0826.4,5.00,000.00,029.3,028.0,000.0,037.8,031.0,27.6,0000.0,0006.82,0003.66,0003.18
2023-10-03 13:47:00,SystemResetWarning,0826.4,5.00,000.00,029.3,028.0,000.0,037.8,031.0,27.8,0000.0,0006.71,0003.67,0003.17
2023-10-03 13:48:00,SystemResetWarning,0826.4,5.01,000.00,029.3,027.9,000.0,037.8,030.9,28.1,0000.0,0006.22,0003.69,0003.17
2023-10-03 13:49:00,SystemResetWarning,0826.4,5.00,000.00,029.3,027.9,000.0,037.8,030.9,28.1,0000.0,0006.22,0003.71,0003.16
2023-10-03 13:50:00,SystemResetWarning,0826.4,5.00,000.00,029.3,027.9,000.0,037.8,030.9,28.2,0000.0,0006.18,0003.70,0003.16
2023-10-03 13:51:00,SystemResetWarning,0826.4,5.00,000.00,029.3,027.9,000.0,037.8,030.9,28.4,0000.0,0006.02,0003.70,0003.16
2023-10-03 13:52:00,SystemResetWarning,0826.4,5.00,000.00,029.3,027.9,000.0,037.8,030.9,28.6,0000.0,0006.00,0003.71,0003.16
2023-10-03 13:53:00,SystemResetWarning,0826.4,4.99,000.00,029.3,027.9,000.0,037.8,030.9,28.9,0000.0,0006.07,0003.72,0003.16
2023-10-03 13:54:00,SystemResetWarning,0826.4,5.00,000.00,029.3,027.9,000.0,037.8,030.9,28.8,0000.0,0006.16,0003.71,0003.16
2023-10-03 13:55:00,SystemResetWarning,0826.4,5.01,000.00,029.3,027.9,000.0,037.8,030.9,28.9,0000.0,0006.23,0003.71,0003.16
2023-10-03 13:56:00,SystemResetWarning,0826.4,5.00,000.00,029.3,027.9,000.0,037.8,030.9,29.1,0000.0,0006.28,0003.70,0003.17
2023-10-03 13:57:00,SystemResetWarning,0826.4,4.99,000.00,029.3,027.9,000.0,037.8,030.9,29.2,0000.0,0006.27,0003.69,0003.17
2023-10-03 13:58:00,SystemResetWarning,0826.4,5.00,000.00,029.3,027.9,000.0,037.8,030.9,29.3,0000.0,0006.42,0003.70,0003.17
2023-10-03 13:59:00,SystemResetWarning,0826.4,5.00,000.00,029.3,027.9,000.0,037.8,030.9,29.5,0000.0,0006.36,0003.67,0003.16
